SUPERVIEW NEO-2 04

Satellite information

Favourite Embed

Satellite Type and Status

PAYLOADIN ORBIT

Key statistics

Satellite SUPERVIEW NEO-2 04 at a glance.

Uptime

289

Days in orbit

Revolutions

≈ 15.2

Per day

Orbit

SSO

Sun Synchronous Orbit

Inclination

97.4

Latest

Satellite identification and parameters

Extended collection of information and parameters for SUPERVIEW NEO-2 04.

Object identification

Identified? True

Debris? False

Object name: SUPERVIEW NEO-2 04

International designator: 2024-218C

Object number (NORAD): 62080

Object ID (CCSDS): 62080

Country: PEOPLES REPUBLIC OF CHINA (PRC)

Current information (Y/N): Y

RCS size: LARGE

Orbital parameters

Period: 94.755 minutes

Inclination: 97.4412 deg

SMA: 6884.833 km

Apoapsis: 507.704 km

Periapsis: 505.692 km

RAAN: 256.8552 deg

Eccentricy: 0.00014615

Argument of periapsis: 101.9679 deg

Mean anomaly: 258.1719 deg

Mean motion: 15.19716687 rev/day

Mean motion (dot): 0.00006869 rev/day2

B* drag term: 0.0003246508 1/REarth

Two-line elements (TLE)

Creation date: Sept. 8, 2025, 3:16 a.m.

Reference frame: TEME

Reference center: EARTH

Epoch: Sept. 7, 2025, 10:49 a.m. UTC

TLE line 0: 0 SUPERVIEW NEO-2 04

TLE line 1: 1 62080U 24218C 25250.45087029 .00006869 00000-0 32465-3 0 9994

TLE line 2: 2 62080 97.4412 256.8552 0001461 101.9679 258.1719 15.19716687 43509

Live tracking on map

Real-time ground track for satellite SUPERVIEW NEO-2 04.

In-orbit conjunctions

There are no conjunctions computed for SUPERVIEW NEO-2 04, at the moment. Check back to stay up to date, as we update our databases every day.

Go to all conjunctions

Associated space launch

Commercial Synthetic-aperture radar Earth observation satellites built by CAST for China Siwei Survey and Mapping Technology Co. Ltd.

SUPERVIEW NEO-2 04 was lifted into orbit during the mission ‘Long March 2C | SuperView Neo 2-03 & 04’, on board a Long March 2 space rocket.

The launch took place on Nov. 24, 2024, 11:39 p.m. from Launch Area 4 (SLS-2 / 603).

For more information about the launch, click the button.

Launch to space Long March 2C | SuperView Neo 2-03 & 04
Long March 2C | SuperView Neo 2-03 & 04

Agency: N/A

Status: Launch Successful

Launch date: Nov. 24, 2024, 11:39 p.m. UTC

Rocket: Long March 2

Launch pad: Launch Area 4 (SLS-2 / 603)

Location: Jiuquan Satellite Launch Center, People's Republic of China

...

Latest news about this satellite

News about space launch
Chang Zheng 12, ZhuQue-2E fly maiden missions; Hainan spaceport and mega constellations expand

In late November, two new Chinese rockets took their maiden flights within four days of… The post Chang Zheng 12, ZhuQue-2E fly maiden missions; Hainan spaceport and mega constellations expand appeared first on NASASpaceFlight.com.

News about space launch
China launches pair of SuperView Neo-2 radar satellites

HELSINKI — China launched a pair of radar satellites late Sunday for a state-owned firm building a 28-satellite remote sensing constellation. A Long March 2C rocket lifted off at 6:39 […] The post China launches pair of SuperView Neo-2 radar satellites a...

News about space launch
Launch Roundup: Falcon 9 launches continue, Rocket Lab to launch two Electrons, Russia to fly to ISS

Following the sixth flight of SpaceX’s Starship on Tuesday, four additional orbital launches are planned worldwide. Rocket Lab will launch an experimental hypersonic testbed payload using a modified Electron from Wallops. What’s more, a second Electron wi...


Newsletter sign-up

Weekly statistics, charts and insights to help you stay on top of the space industry.